Location: La Fredeussais
(48.1780°N, 1.3980°W)
Time: 07:47:25
(UTC+00:00)

STARLINK-2738 - Pass Details

Date: 30 July 2021
Orbit: 546 x 548 km, 53.1° (Epoch: 19 September)

Event Time Altitude Azimuth Distance (km) Brightness Sun altitude
Rises 20:41:58 0° 288° (WNW) 2,691 8.6 -8.7°
Reaches altitude 10° 20:44:52 10° 267° (W) 1,796 7.0 -9.1°
Maximum altitude 20:47:23 16° 229° (SW) 1,450 5.9 -9.4°
Drops below altitude 10° 20:49:54 10° 190° (S) 1,790 5.9 -9.7°
Enters shadow 20:51:20 - 177° (S) 2,198 6.3 -9.9°
